TimeCST,TemperatureF,Dew PointF,Humidity,Sea Level PressureIn,VisibilityMPH,Wind Direction,Wind SpeedMPH,Gust SpeedMPH,PrecipitationIn,Events,Conditions,WindDirDegrees,DateUTC
12:53 AM,57.0,39.9,53,29.82,10.0,SSW,12.7,21.9,N/A,,Mostly Cloudy,210,2012-01-01 06:53:00
1:05 AM,57.2,39.2,51,29.82,10.0,SSW,12.7,21.9,N/A,,Mostly Cloudy,210,2012-01-01 07:05:00
1:32 AM,55.4,42.8,63,29.81,10.0,SSW,9.2,20.7,N/A,,Scattered Clouds,210,2012-01-01 07:32:00
1:53 AM,55.4,44.6,67,29.81,10.0,SSW,10.4,19.6,N/A,,Partly Cloudy,210,2012-01-01 07:53:00
2:53 AM,57.9,50.0,75,29.81,10.0,SW,17.3,24.2,N/A,,Scattered Clouds,230,2012-01-01 08:53:00
3:53 AM,55.9,48.9,77,29.83,10.0,WSW,20.7,34.5,N/A,,Clear,250,2012-01-01 09:53:00
4:53 AM,53.1,44.1,71,29.87,10.0,WSW,17.3,-,N/A,,Clear,250,2012-01-01 10:53:00
5:53 AM,51.1,39.9,66,29.93,10.0,West,17.3,-,N/A,,Clear,260,2012-01-01 11:53:00
6:53 AM,50.0,34.0,54,29.99,10.0,West,19.6,26.5,N/A,,Partly Cloudy,270,2012-01-01 12:53:00
7:53 AM,46.9,33.1,59,30.09,10.0,NW,16.1,31.1,N/A,,Mostly Cloudy,310,2012-01-01 13:53:00
8:53 AM,46.9,33.1,59,30.14,10.0,NW,21.9,31.1,N/A,,Mostly Cloudy,310,2012-01-01 14:53:00
9:53 AM,48.0,34.0,58,30.18,10.0,NW,13.8,18.4,N/A,,Mostly Cloudy,310,2012-01-01 15:53:00
10:53 AM,48.9,33.1,54,30.19,10.0,WNW,12.7,23.0,N/A,,Clear,290,2012-01-01 16:53:00
11:53 AM,51.1,32.0,48,30.19,10.0,WNW,15.0,24.2,N/A,,Partly Cloudy,290,2012-01-01 17:53:00
12:53 PM,51.1,27.0,39,30.19,10.0,NW,15.0,23.0,N/A,,Clear,310,2012-01-01 18:53:00
1:53 PM,52.0,24.1,34,30.22,10.0,WNW,13.8,21.9,N/A,,Clear,300,2012-01-01 19:53:00
2:53 PM,51.1,21.0,31,30.24,10.0,NNW,12.7,23.0,N/A,,Clear,330,2012-01-01 20:53:00
3:53 PM,50.0,17.6,28,30.26,10.0,NW,15.0,-,N/A,,Clear,310,2012-01-01 21:53:00
4:53 PM,46.0,19.9,35,30.28,10.0,WNW,6.9,-,N/A,,Clear,300,2012-01-01 22:53:00
5:53 PM,44.1,19.0,37,30.30,10.0,WNW,12.7,20.7,N/A,,Clear,300,2012-01-01 23:53:00
6:53 PM,44.1,17.1,34,30.33,10.0,WNW,13.8,18.4,N/A,,Clear,300,2012-01-02 00:53:00
7:53 PM,42.1,16.0,35,30.36,10.0,NW,10.4,-,N/A,,Clear,310,2012-01-02 01:53:00
8:53 PM,39.9,16.0,38,30.36,10.0,NW,6.9,-,N/A,,Clear,310,2012-01-02 02:53:00
9:53 PM,37.9,16.0,41,30.35,10.0,WNW,5.8,-,N/A,,Clear,290,2012-01-02 03:53:00
10:53 PM,39.0,15.1,38,30.35,10.0,WNW,13.8,19.6,N/A,,Clear,300,2012-01-02 04:53:00
11:53 PM,37.9,14.0,38,30.34,10.0,WNW,10.4,20.7,N/A,,Clear,300,2012-01-02 05:53:00